Weather History for Crestview, FL

Change the Weather History Date:

Saturday, December 8, 2012

  Actual Average Record
Temperature  
Mean Temperature 64 °F -  
Max Temperature 75 °F - - ()
Min Temperature 53 °F - - ()
Degree Days  
Heating Degree Days 1    
Growing Degree Days 14 (Base 50)    
Moisture  
Dew Point 60 °F    
Average Humidity 95    
Maximum Humidity 100    
Minimum Humidity 60    
Precipitation  
Precipitation 0.06 in - - ()
Sea Level Pressure  
Sea Level Pressure 30.02 in    
Wind  
Wind Speed 3 mph (ESE)    
Max Wind Speed 10 mph    
Max Gust Speed -    
Visibility 6 miles    
Events Fog , Rain    
T = Trace of Precipitation, MM = Missing Value Source: NWS Daily Summary

Daily Weather History Graph

Daily Weather History Graph

Search for Another Location

Airport:

Trip Planner

Search our weather history database for the weather conditions in past years. The results will help you decide how hot, cold, wet, or windy it might be!

Date:

Astronomy

Dec. 08, 2012 Rise Set
Actual Time 6:31 AM CST 4:44 PM CST
Civil Twilight 6:05 AM CST 5:11 PM CST
Nautical Twilight 5:35 AM CST 5:41 PM CST
Astronomical Twilight 5:05 AM CST 6:10 PM CST
Moon 1:13 AM CST (12/8) 12:59 PM CST (12/8)
Length of Visible Light 11h 06m
Length of Day
10h 13m
Waning Crescent, 28% of the Moon is Illuminated
Dec 8
Waning Crescent
Dec 13
New
Dec 19
First Quarter
Dec 28
Full
Jan 4
Last Quarter

Hourly Weather History & Observations

Time (CST) Temp. Dew Point Humidity Pressure Visibility Wind Dir Wind Speed Gust Speed Precip Events Conditions
12:55 AM 61.3 °F 59.4 °F 93% 29.98 in 10.0 mi ESE 4.6 mph - N/A   Mostly Cloudy
1:55 AM 61.3 °F 59.9 °F 95% 29.97 in 10.0 mi ESE 5.8 mph - N/A   Mostly Cloudy
2:55 AM 61.7 °F 59.9 °F 94% 29.97 in 10.0 mi SE 5.8 mph - N/A   Overcast
3:48 AM 60.8 °F 59.0 °F 94% 29.97 in 10.0 mi East 4.6 mph - N/A   Mostly Cloudy
3:55 AM 61.2 °F 59.7 °F 95% 29.97 in 10.0 mi ESE 5.8 mph - N/A   Mostly Cloudy
4:55 AM 61.3 °F 59.0 °F 92% 29.97 in 10.0 mi East 3.5 mph - N/A   Overcast
5:03 AM 60.8 °F 59.0 °F 94% 29.98 in 10.0 mi East 3.5 mph - N/A   Overcast
5:11 AM 60.8 °F 59.0 °F 94% 29.98 in 10.0 mi East 3.5 mph - N/A   Overcast
5:35 AM 60.8 °F 59.0 °F 94% 29.98 in 10.0 mi ENE 4.6 mph - N/A   Overcast
5:46 AM 60.8 °F 59.0 °F 94% 29.98 in 10.0 mi ENE 4.6 mph - N/A   Overcast
5:55 AM 60.6 °F 59.9 °F 97% 29.99 in 10.0 mi ENE 3.5 mph - N/A   Overcast
5:56 AM 60.8 °F 59.0 °F 94% 29.99 in 10.0 mi ENE 3.5 mph - N/A   Overcast
5:58 AM 60.8 °F 59.0 °F 94% 29.99 in 10.0 mi ENE 4.6 mph - N/A   Overcast
6:03 AM 60.8 °F 59.0 °F 94% 29.99 in 10.0 mi ENE 3.5 mph - N/A   Light Drizzle
6:11 AM 60.8 °F 60.8 °F 100% 29.99 in 10.0 mi East 3.5 mph - N/A   Overcast
6:55 AM 60.8 °F 60.4 °F 99% 30.00 in 10.0 mi Calm Calm - 0.00 in   Mostly Cloudy
7:06 AM 60.8 °F 60.8 °F 100% 30.01 in 10.0 mi Calm Calm - N/A   Mostly Cloudy
7:22 AM 60.8 °F 60.8 °F 100% 30.01 in 10.0 mi ESE 3.5 mph - N/A   Mostly Cloudy
7:32 AM 62.6 °F 60.8 °F 94% 30.02 in 10.0 mi Calm Calm - N/A   Overcast
7:38 AM 62.6 °F 60.8 °F 94% 30.02 in 10.0 mi Calm Calm - N/A   Overcast
7:45 AM 62.6 °F 60.8 °F 94% 30.02 in 10.0 mi Calm Calm - N/A   Overcast
7:48 AM 62.6 °F 60.8 °F 94% 30.02 in 10.0 mi Calm Calm - N/A   Overcast
7:55 AM 62.6 °F 60.8 °F 94% 30.02 in 10.0 mi ESE 4.6 mph - N/A   Overcast
8:05 AM 62.6 °F 60.8 °F 94% 30.03 in 10.0 mi ESE 3.5 mph - N/A   Overcast
8:06 AM 62.6 °F 60.8 °F 94% 30.02 in 10.0 mi ESE 3.5 mph - N/A   Overcast
8:07 AM 62.6 °F 60.8 °F 94% 30.02 in 10.0 mi SE 3.5 mph - N/A   Light Drizzle
8:13 AM 62.6 °F 60.8 °F 94% 30.03 in 10.0 mi Calm Calm - N/A   Overcast
8:18 AM 62.6 °F 60.8 °F 94% 30.03 in 10.0 mi ESE 3.5 mph - N/A   Light Drizzle
8:26 AM 62.6 °F 60.8 °F 94% 30.03 in 10.0 mi SE 3.5 mph - N/A   Light Drizzle
8:44 AM 64.4 °F 60.8 °F 88% 30.03 in 10.0 mi ESE 5.8 mph - N/A   Overcast
8:47 AM 64.4 °F 60.8 °F 88% 30.03 in 10.0 mi ESE 4.6 mph - N/A   Light Drizzle
8:54 AM 64.4 °F 62.6 °F 94% 30.03 in 7.0 mi East 4.6 mph - N/A Rain Light Rain
8:55 AM 64.0 °F 61.7 °F 92% 30.03 in 7.0 mi East 5.8 mph - 0.00 in Rain Light Rain
9:09 AM 64.4 °F 62.6 °F 94% 30.04 in 4.0 mi Calm Calm - N/A Rain Light Rain
9:15 AM 64.4 °F 62.6 °F 94% 30.04 in 9.0 mi Calm Calm - N/A   Light Drizzle
9:16 AM 64.4 °F 62.6 °F 94% 30.04 in 9.0 mi Calm Calm - N/A   Mostly Cloudy
9:20 AM 64.4 °F 62.6 °F 94% 30.04 in 10.0 mi Calm Calm - N/A   Light Drizzle
9:22 AM 64.4 °F 62.6 °F 94% 30.04 in 7.0 mi East 3.5 mph - N/A Rain Light Rain
9:25 AM 64.4 °F 62.6 °F 94% 30.04 in 2.5 mi Calm Calm - N/A Rain Light Rain
9:26 AM 64.4 °F 62.6 °F 94% 30.04 in 2.0 mi ESE 3.5 mph - N/A Rain Light Rain
9:27 AM 64.4 °F 62.6 °F 94% 30.04 in 1.8 mi ESE 3.5 mph - N/A Rain Light Rain
9:30 AM 64.4 °F 62.6 °F 94% 30.04 in 1.2 mi ESE 4.6 mph - N/A Rain Rain
9:33 AM 64.4 °F 62.6 °F 94% 30.04 in 1.0 mi East 3.5 mph - N/A Rain Rain
9:34 AM 64.4 °F 62.6 °F 94% 30.04 in 1.2 mi ENE 3.5 mph - N/A Rain Heavy Rain
9:35 AM 64.4 °F 62.6 °F 94% 30.04 in 1.5 mi East 3.5 mph - N/A Rain Heavy Rain
9:37 AM 64.4 °F 62.6 °F 94% 30.04 in 2.0 mi East 3.5 mph - N/A Rain Light Rain
9:38 AM 64.4 °F 62.6 °F 94% 30.04 in 2.5 mi East 3.5 mph - N/A Rain Light Rain
9:40 AM 64.4 °F 62.6 °F 94% 30.04 in 3.0 mi Calm Calm - N/A Rain Light Rain
9:43 AM 64.4 °F 64.4 °F 100% 30.04 in 9.0 mi Calm Calm - N/A   Overcast
9:48 AM 64.4 °F 64.4 °F 100% 30.04 in 10.0 mi Calm Calm - N/A Rain Light Rain
9:55 AM 64.8 °F 64.4 °F 99% 30.03 in 8.0 mi Calm Calm - 0.06 in Rain Light Rain
9:59 AM 64.4 °F 64.4 °F 100% 30.03 in 9.0 mi Calm Calm - N/A Rain Light Rain
10:00 AM 66.2 °F 64.4 °F 94% 30.03 in 10.0 mi ESE 3.5 mph - N/A   Overcast
10:07 AM 66.2 °F 64.4 °F 94% 30.03 in 10.0 mi Calm Calm - N/A   Overcast
10:11 AM 66.2 °F 64.4 °F 94% 30.03 in 10.0 mi SE 4.6 mph - N/A   Overcast
10:31 AM 66.2 °F 64.4 °F 94% 30.02 in 10.0 mi SE 6.9 mph - N/A   Overcast
10:55 AM 68.0 °F 63.9 °F 87% 30.01 in 10.0 mi SE 4.6 mph - 0.00 in   Mostly Cloudy
10:58 AM 68.0 °F 64.4 °F 88% 30.01 in 10.0 mi SE 4.6 mph - N/A   Mostly Cloudy
11:55 AM 71.8 °F 63.7 °F 76% 29.98 in 10.0 mi South 9.2 mph - N/A   Scattered Clouds
12:55 PM 74.5 °F 62.2 °F 66% 29.96 in 10.0 mi South 6.9 mph - N/A   Scattered Clouds
1:55 PM 75.7 °F 61.2 °F 60% 29.95 in 10.0 mi South 9.2 mph - N/A   Scattered Clouds
2:55 PM 73.9 °F 62.2 °F 67% 29.95 in 10.0 mi South 6.9 mph - N/A   Partly Cloudy
3:55 PM 73.4 °F 62.6 °F 69% 29.96 in 10.0 mi SSW 10.4 mph - N/A   Scattered Clouds
4:55 PM 67.8 °F 61.9 °F 81% 29.98 in 10.0 mi South 8.1 mph - N/A   Clear
5:55 PM 64.8 °F 62.1 °F 91% 29.99 in 10.0 mi South 4.6 mph - N/A   Clear
6:55 PM 61.9 °F 61.5 °F 99% 30.00 in 10.0 mi Calm Calm - N/A   Clear
7:01 PM 60.8 °F 60.8 °F 100% 30.01 in 2.5 mi Calm Calm - N/A   Clear
7:04 PM 60.8 °F 60.8 °F 100% 30.01 in 3.0 mi Calm Calm - N/A   Clear
7:36 PM 60.8 °F 59.0 °F 94% 30.01 in 2.5 mi South 3.5 mph - N/A   Clear
7:42 PM 60.8 °F 60.8 °F 100% 30.01 in 3.0 mi South 3.5 mph - N/A   Clear
7:55 PM 60.8 °F 60.6 °F 99% 30.02 in 10.0 mi SSE 3.5 mph - N/A   Clear
8:00 PM 59.0 °F 59.0 °F 100% 30.02 in 2.5 mi Calm Calm - N/A   Clear
8:04 PM 59.0 °F 59.0 °F 100% 30.02 in 2.0 mi Calm Calm - N/A   Clear
8:08 PM 60.8 °F 59.0 °F 94% 30.02 in 2.5 mi Calm Calm - N/A   Clear
8:10 PM 60.8 °F 59.0 °F 94% 30.02 in 3.0 mi Calm Calm - N/A   Clear
8:15 PM 59.0 °F 59.0 °F 100% 30.02 in 2.5 mi Calm Calm - N/A   Clear
8:16 PM 59.0 °F 59.0 °F 100% 30.02 in 2.0 mi Calm Calm - N/A   Partly Cloudy
8:17 PM 59.0 °F 59.0 °F 100% 30.02 in 1.8 mi Calm Calm - N/A   Partly Cloudy
8:22 PM 57.2 °F 57.2 °F 100% 30.02 in 2.0 mi Calm Calm - N/A   Scattered Clouds
8:25 PM 57.2 °F 57.2 °F 100% 30.02 in 2.5 mi Calm Calm - N/A   Mostly Cloudy
8:26 PM 57.2 °F 57.2 °F 100% 30.02 in 4.0 mi Calm Calm - N/A   Mostly Cloudy
8:32 PM 57.2 °F 57.2 °F 100% 30.03 in 2.0 mi Calm Calm - N/A   Mostly Cloudy
8:33 PM 57.2 °F 57.2 °F 100% 30.03 in 1.8 mi Calm Calm - N/A   Mostly Cloudy
8:40 PM 59.0 °F 59.0 °F 100% 30.03 in 2.0 mi Calm Calm - N/A   Mostly Cloudy
8:41 PM 59.0 °F 59.0 °F 100% 30.03 in 2.5 mi Calm Calm - N/A   Mostly Cloudy
8:42 PM 59.0 °F 59.0 °F 100% 30.03 in 4.0 mi Calm Calm - N/A   Overcast
8:55 PM 59.0 °F 58.8 °F 99% 30.03 in 10.0 mi Calm Calm - N/A   Mostly Cloudy
9:55 PM 56.7 °F 56.3 °F 99% 30.03 in 8.0 mi Calm Calm - N/A   Clear
10:06 PM 57.2 °F 57.2 °F 100% 30.03 in 2.5 mi Calm Calm - N/A   Clear
10:07 PM 57.2 °F 57.2 °F 100% 30.03 in 1.5 mi Calm Calm - N/A   Clear
10:08 PM 57.2 °F 57.2 °F 100% 30.03 in 1.0 mi Calm Calm - N/A   Clear
10:09 PM 57.2 °F 57.2 °F 100% 30.04 in 0.8 mi Calm Calm - N/A   Clear
10:10 PM 57.2 °F 57.2 °F 100% 30.03 in 0.5 mi Calm Calm - N/A Fog Fog
10:42 PM 55.4 °F 55.4 °F 100% 30.03 in 0.8 mi Calm Calm - N/A   Clear
10:45 PM 55.4 °F 55.4 °F 100% 30.03 in 1.0 mi Calm Calm - N/A   Clear
10:46 PM 55.4 °F 55.4 °F 100% 30.03 in 1.2 mi Calm Calm - N/A   Clear
10:47 PM 55.4 °F 55.4 °F 100% 30.03 in 1.8 mi Calm Calm - N/A   Clear
10:48 PM 55.4 °F 55.4 °F 100% 30.03 in 2.5 mi Calm Calm - N/A   Clear
10:49 PM 55.4 °F 55.4 °F 100% 30.03 in 3.0 mi Calm Calm - N/A   Clear
10:55 PM 54.9 °F 54.5 °F 99% 30.03 in 9.0 mi Calm Calm - N/A   Clear
11:07 PM 55.4 °F 55.4 °F 100% 30.03 in 2.0 mi Calm Calm - N/A   Clear
11:08 PM 55.4 °F 55.4 °F 100% 30.03 in 1.5 mi Calm Calm - N/A   Clear
11:09 PM 55.4 °F 55.4 °F 100% 30.03 in 1.2 mi Calm Calm - N/A   Clear
11:10 PM 55.4 °F 55.4 °F 100% 30.03 in 1.0 mi Calm Calm - N/A   Clear
11:11 PM 55.4 °F 55.4 °F 100% 30.03 in 0.8 mi Calm Calm - N/A   Clear
11:12 PM 55.4 °F 55.4 °F 100% 30.03 in 0.5 mi Calm Calm - N/A Fog Fog
11:15 PM 55.4 °F 55.4 °F 100% 30.03 in 0.2 mi Calm Calm - N/A Fog Fog
11:52 PM 53.6 °F 53.6 °F 100% 30.02 in 0.5 mi Calm Calm - N/A Fog Fog
11:55 PM 54.3 °F 54.0 °F 99% 30.02 in 0.5 mi Calm Calm - N/A Fog Fog
11:59 PM 53.6 °F 53.6 °F 100% 30.02 in 0.8 mi Calm Calm - N/A   Clear